Location: Castro Valley
(37.6941°N, 122.0863°W)
Time: 12:49:41
(UTC+00:00)

SJ 16-02 - Pass Details

Date: 19 May 2025
Orbit: 587 x 597 km, 75.0° (Epoch: 16 June)

Event Time Altitude Azimuth Distance (km) Brightness Sun altitude
Rises 12:23:23 0° 166° (SSE) 2,811 4.6 -6.4°
Reaches altitude 10° 12:25:55 10° 152° (SSE) 1,917 3.9 -5.9°
Maximum altitude 12:29:20 24° 98° (E) 1,255 3.7 -5.4°
Drops below altitude 10° 12:32:46 10° 45° (NE) 1,934 5.5 -4.8°
Sets 12:35:20 0° 32° (NNE) 2,842 6.0 -4.3°
